Location: Unspecified
(52.4292°N, 19.3359°E)
Time: 15:14:17
(UTC+02:00)

Transit 2A Rocket - Pass Details

Date: 29 May 2024
Orbit: 583 x 910 km, 66.7° (Epoch: 14 June)

Event Time Altitude Azimuth Distance (km) Brightness Sun altitude
Rises 07:15:26 0° 298° (WNW) 3,248 7.8 22.3°
Reaches altitude 10° 07:18:30 10° 317° (NW) 2,384 7.3 22.8°
Maximum altitude 07:22:23 19° 2° (N) 1,896 7.3 23.4°
Drops below altitude 10° 07:26:28 10° 46° (NE) 2,520 8.6 24.0°
Sets 07:29:49 0° 64° (ENE) 3,499 9.5 24.5°
